[[{"header":{"parameterUnit":"m.s-1","parameterCategory":1,"la1":30.2991,"la2":30.254,"lo1":-89.0895,"lo2":-89.0444,"dy":0.0017,"dx":0.0017,"nx":28,"ny":28,"refTime":"2025-03-15T09:00:00:Z","depth":0,"parameterNumber":2,"parameterNumberName":"U-component_of_WINDS"},"data":[0,0,0,0,0,0,0,0,0,0,0,0,0,0,0,0,0,0,0,0,0,0,0,0,0,0,0,0,0,0,0,0,0,0,0,0,0,0,0,0,0,0,0,0,0,0,0,0,0,0,0,0,0,0,0,0,0,0,3.2352,3.2353,0,3.2428,3.2429,3.243,3.2392,3.239,3.2388,3.2387,3.2464,3.2467,3.2471,0,0,0,0,0,0,0,0,0,0,0,0,0,3.2177,3.218,3.2352,3.2353,3.2354,3.2428,3.2429,3.243,3.2393,3.239,3.2388,3.2386,3.2462,3.2467,3.2472,0,0,0,0,0,0,0,0,0,0,0,0,0,3.2253,3.2181,3.2352,3.2344,3.2345,3.2427,3.2429,3.243,3.2393,3.239,3.2387,3.2385,3.2461,3.2466,3.2472,3.2567,0,0,3.249,3.2492,0,0,0,0,0,0,0,0,3.2248,3.2259,3.2345,3.2345,3.2345,3.2398,3.2395,3.2476,3.2394,3.2375,3.2386,3.2383,3.2444,3.2451,3.2472,3.257,3.2574,3.249,3.2494,3.2496,3.2498,0,0,0,0,0,0,0,3.2243,3.2256,3.2382,3.2346,3.2346,3.2338,3.2345,3.241,3.2425,3.2376,3.2374,3.2383,3.2444,3.2466,3.2473,3.2575,3.249,3.2495,3.2499,3.2501,3.2757,3.276,0,0,0,0,0,0,3.2238,3.2252,3.238,3.2384,3.2289,3.2343,3.2352,3.2384,3.2424,3.2427,3.2386,3.2381,3.2458,3.2466,3.2476,3.259,3.2496,3.2502,3.2505,3.2754,3.2758,3.2761,0,0,0,0,0,0,3.2235,3.225,3.2377,3.2317,3.2333,3.2349,3.2386,3.2387,3.2409,3.2431,3.2434,3.2406,3.2456,3.2468,3.2545,3.2592,3.2504,3.251,3.275,3.2755,3.276,3.282,0,0,0,0,0,0,3.223,3.2249,3.2285,3.2318,3.2336,3.2444,3.2389,3.239,3.2419,3.2414,3.2451,3.2454,3.2454,3.2536,3.2551,3.2599,3.2514,3.2746,3.2752,3.2758,3.2813,3.2826,3.2837,0,0,0,0,0,3.2224,3.2298,3.2287,3.2302,3.2381,3.2447,3.2457,3.2456,3.2423,3.246,3.2474,3.2453,3.2585,3.2545,3.256,3.2611,3.2743,3.275,3.2758,3.2808,3.2823,3.2836,0,0,0,0,0,0,3.2269,3.2302,3.229,3.2377,3.241,3.2441,3.2486,3.2472,3.2514,3.2508,3.2504,3.2513,3.2594,3.261,3.2564,3.2706,3.2659,3.267,3.2692,3.2707,3.2718,3.2712,3.2519,0,0,0,0,0,3.2289,3.234,3.2366,3.2441,3.2458,3.247,3.2498,3.2495,3.2528,3.2542,3.2561,3.2595,3.2644,3.2676,3.2722,3.2816,3.2824,3.2859,3.287,3.288,3.2889,3.2941,3.2957,3.2786,3.2786,3.2786,0,0,3.2331,3.2356,3.2388,3.2451,3.2475,3.2528,3.2481,3.2539,3.2578,3.255,3.2625,3.2641,3.2678,3.2764,3.2803,3.278,3.2938,3.2889,3.2896,3.2901,3.2951,3.2967,3.2981,3.2791,3.279,3.2789,0,0,3.2435,3.2458,3.2524,3.255,3.2588,3.2596,3.2612,3.2646,3.2655,3.273,3.2711,3.2758,3.2842,3.287,3.2895,3.3012,3.2994,3.3027,3.3088,3.3139,3.3152,3.3164,3.3207,3.3222,3.3036,3.3037,3.3037,0,3.2482,3.2561,3.2559,3.2619,3.2648,3.2626,3.2693,3.2718,3.2769,3.279,3.2764,3.2871,3.2894,3.2987,3.3016,3.3037,3.3055,3.3023,3.315,3.3162,3.3174,3.3214,3.323,3.304,3.304,3.304,3.3039,0,3.2618,3.2674,3.2722,3.2773,3.2807,3.287,3.2879,3.2914,3.2908,3.2919,3.2996,3.3024,3.3076,3.3098,3.3092,3.3191,3.3176,3.315,3.3103,3.3194,3.3232,3.3247,3.3046,3.3044,3.3043,3.3042,0,0,3.2751,3.2802,3.282,3.2843,3.2885,3.2928,3.2991,3.3042,3.3073,3.311,3.3163,3.3236,3.3213,3.3242,3.3239,3.3284,3.3377,3.3253,3.3254,3.3276,3.3488,3.3508,3.3525,3.3365,3.3368,3.3371,3.3486,0,3.2858,3.2968,3.2969,3.3071,3.3122,3.3103,3.3158,3.319,3.3202,3.3248,3.3262,3.3314,3.3279,3.3297,3.334,3.3356,3.3419,3.3348,3.3415,3.3418,3.3407,3.3545,3.3565,3.3672,3.35,3.3503,3.3505,0,3.2998,3.304,3.3147,3.3183,3.3204,3.3254,3.3302,3.3346,3.3383,3.3388,3.3422,3.3413,3.3478,3.3429,3.3519,3.3471,3.3499,3.3511,3.3515,3.3521,3.3467,3.3556,3.3706,3.3722,3.3528,3.3526,3.3524,0,3.3085,3.3169,3.3244,3.3265,3.3308,3.3343,3.3363,3.3397,3.3428,3.3471,3.3491,3.3541,3.3568,3.3607,3.3612,3.3576,3.3703,3.3655,3.371,3.3711,3.3738,3.3736,3.3895,3.3756,3.3755,3.3755,3.3755,0,3.3205,3.3271,3.3284,3.333,3.3404,3.3405,3.3479,3.3496,3.3526,3.3576,3.3562,3.3609,3.3613,3.3662,3.3667,3.3741,3.3754,3.3761,3.3761,3.3762,3.3761,3.378,3.3773,3.3759,3.3758,3.3757,3.3757,0,3.3315,3.3326,3.3406,3.3442,3.3452,3.3505,3.3535,3.358,3.3592,3.3655,3.367,3.3688,3.3745,3.3754,3.3821,3.3824,3.3914,3.3906,3.3902,3.3901,3.3956,3.3951,3.4133,3.4158,3.4002,3.4003,3.4005,0,3.339,3.3441,3.3482,3.3515,3.3536,3.3589,3.3621,3.3625,3.366,3.3706,3.3746,3.3801,3.3846,3.3938,3.3957,3.4008,3.4002,3.4063,3.401,3.401,3.4004,3.4001,3.4007,3.4073,3.4075,3.4076,3.4077,0,3.3524,3.3527,3.3575,3.3625,3.3664,3.3704,3.3741,3.3769,3.3778,3.3818,3.3876,3.3911,3.398,3.4035,3.4087,3.4108,3.4095,3.4094,3.411,3.4111,3.4106,3.411,3.393,3.4089,3.4088,3.4087,3.4087,3.4086,3.3619,3.3664,3.37,3.3754,3.3783,3.3819,3.3863,3.3881,3.3929,3.3986,3.3985,3.405,3.4087,3.4155,3.4179,3.423,3.421,3.4233,3.4239,3.4244,3.425,3.4099,3.4239,3.4239,3.4239,3.4238,3.4238,0,3.3752,3.3775,3.3825,3.3878,3.3921,3.3906,3.3947,3.3984,3.4041,3.4076,3.4121,3.4189,3.4244,3.4268,3.4322,3.4358,3.4354,3.4372,3.437,3.4375,3.4264,3.4245,3.4375,3.4375,3.4375,3.4375,3.4375,3.4375,3.3827,3.3902,3.391,3.4,3.4023,3.4086,3.4111,3.4144,3.4173,3.425,3.4295,3.4311,3.4343,3.4399,3.4449,3.4455,3.4476,3.4497,3.4501,3.4396,3.4383,3.4369,3.4352,3.4502,3.4502,3.4607,3.4608,3.4609]},{"header":{"parameterUnit":"m.s-1","parameterCategory":1,"la1":30.2991,"la2":30.254,"lo1":-89.0895,"lo2":-89.0444,"dy":0.0017,"dx":0.0017,"nx":28,"ny":28,"refTime":"2025-03-15T09:00:00:Z","depth":0,"parameterNumber":3,"parameterNumberName":"V-component_of_WINDS"},"data":[0,0,0,0,0,0,0,0,0,0,0,0,0,0,0,0,0,0,0,0,0,0,0,0,0,0,0,0,0,0,0,0,0,0,0,0,0,0,0,0,0,0,0,0,0,0,0,0,0,0,0,0,0,0,0,0,0,0,-6.6829,-6.6832,0,-6.7087,-6.709,-6.7093,-6.7067,-6.7062,-6.7058,-6.7055,-6.732,-6.733,-6.7341,0,0,0,0,0,0,0,0,0,0,0,0,0,-6.6314,-6.6324,-6.6829,-6.6832,-6.6835,-6.7087,-6.7091,-6.7094,-6.7067,-6.7062,-6.7057,-6.7053,-6.7316,-6.7329,-6.7342,0,0,0,0,0,0,0,0,0,0,0,0,0,-6.6552,-6.6327,-6.6828,-6.6852,-6.6857,-6.7086,-6.7091,-6.7095,-6.7068,-6.7062,-6.7056,-6.705,-6.7312,-6.7328,-6.7344,-6.7566,0,0,-6.7393,-6.7401,0,0,0,0,0,0,0,0,-6.6538,-6.657,-6.6846,-6.6851,-6.6857,-6.7038,-6.7006,-6.7253,-6.707,-6.6988,-6.7054,-6.7047,-6.7231,-6.7254,-6.7316,-6.7578,-6.759,-6.7395,-6.7405,-6.7412,-6.7416,0,0,0,0,0,0,0,-6.6522,-6.6559,-6.6931,-6.685,-6.6856,-6.6851,-6.6878,-6.7053,-6.7141,-6.6995,-6.6993,-6.7024,-6.7233,-6.73,-6.7322,-6.7594,-6.7394,-6.7409,-6.7419,-6.7425,-6.8054,-6.8061,0,0,0,0,0,0,-6.6499,-6.6546,-6.6923,-6.6939,-6.6679,-6.6865,-6.6895,-6.6986,-6.7139,-6.7156,-6.7029,-6.7022,-6.7275,-6.7303,-6.7331,-6.7603,-6.7412,-6.7427,-6.7436,-6.8047,-6.8056,-6.8063,0,0,0,0,0,0,-6.6488,-6.6533,-6.6913,-6.6742,-6.679,-6.688,-6.6983,-6.6995,-6.7061,-6.7165,-6.718,-6.7081,-6.7271,-6.7308,-6.7508,-6.7612,-6.7434,-6.7449,-6.8039,-6.805,-6.806,-6.8148,0,0,0,0,0,0,-6.6474,-6.6529,-6.6614,-6.6744,-6.6799,-6.7086,-6.6989,-6.7004,-6.709,-6.7083,-6.7218,-6.7234,-6.7269,-6.7484,-6.7524,-6.7631,-6.7462,-6.803,-6.8044,-6.8056,-6.8136,-6.816,-6.818,0,0,0,0,0,-6.6455,-6.6628,-6.6619,-6.6664,-6.6907,-6.7092,-6.7123,-6.716,-6.7098,-6.7185,-6.7251,-6.723,-6.7593,-6.7505,-6.755,-6.7663,-6.8024,-6.804,-6.8055,-6.8126,-6.8155,-6.818,0,0,0,0,0,0,-6.6508,-6.6646,-6.6637,-6.6857,-6.6963,-6.7087,-6.7197,-6.7189,-6.7315,-6.7303,-6.7343,-6.7374,-6.7577,-6.7639,-6.7538,-6.7887,-6.7801,-6.7826,-6.7839,-6.7868,-6.7889,-6.7871,-6.7475,0,0,0,0,0,-6.6546,-6.6683,-6.6796,-6.698,-6.7033,-6.7106,-6.7188,-6.7207,-6.7318,-6.7363,-6.7444,-6.7553,-6.7692,-6.7783,-6.7916,-6.8144,-6.8175,-6.8245,-6.8267,-6.8284,-6.8306,-6.8434,-6.8467,-6.8115,-6.8115,-6.8114,0,0,-6.6624,-6.6716,-6.6801,-6.6993,-6.7077,-6.722,-6.7144,-6.7298,-6.7405,-6.7386,-6.7581,-6.7645,-6.7769,-6.7985,-6.8084,-6.8044,-6.841,-6.8304,-6.8317,-6.833,-6.8453,-6.8487,-6.8516,-6.8125,-6.8123,-6.8122,0,0,-6.6841,-6.6923,-6.7087,-6.7173,-6.7301,-6.7349,-6.7388,-6.7514,-6.7556,-6.7752,-6.7742,-6.7869,-6.8107,-6.8197,-6.8274,-6.8526,-6.8512,-6.8568,-6.8684,-6.8808,-6.8836,-6.8861,-6.8953,-6.8985,-6.8589,-6.8589,-6.859,0,-6.6922,-6.7137,-6.7171,-6.7328,-6.7413,-6.7403,-6.757,-6.7651,-6.7817,-6.7877,-6.7829,-6.8129,-6.8212,-6.845,-6.8511,-6.8573,-6.862,-6.8554,-6.8829,-6.8854,-6.8878,-6.8966,-6.9001,-6.8596,-6.8595,-6.8594,-6.8594,0,-6.7232,-6.7381,-6.7497,-6.7658,-6.7756,-6.7916,-6.7976,-6.8072,-6.8083,-6.8136,-6.8336,-6.8435,-6.859,-6.8647,-6.8659,-6.8888,-6.8859,-6.882,-6.8734,-6.8917,-6.9001,-6.9035,-6.8604,-6.8602,-6.86,-6.8599,0,0,-6.749,-6.7668,-6.7711,-6.7784,-6.7926,-6.8042,-6.8202,-6.8354,-6.8436,-6.855,-6.8687,-6.8889,-6.8855,-6.8942,-6.8963,-6.9072,-6.9268,-6.902,-6.9023,-6.9064,-6.9529,-6.9559,-6.9598,-6.9259,-6.9265,-6.9271,-6.9519,0,-6.7722,-6.8006,-6.8042,-6.8295,-6.8434,-6.8427,-6.8567,-6.8669,-6.8723,-6.8849,-6.8908,-6.9052,-6.8994,-6.9047,-6.9154,-6.9221,-6.9362,-6.9204,-6.9388,-6.9394,-6.9359,-6.9641,-6.9673,-6.9903,-6.9552,-6.9558,-6.9562,0,-6.8031,-6.8155,-6.8421,-6.8546,-6.8605,-6.8731,-6.8873,-6.8993,-6.911,-6.9142,-6.924,-6.9248,-6.9415,-6.9321,-6.9553,-6.9445,-6.9522,-6.9567,-6.9576,-6.9597,-6.949,-6.9671,-6.9977,-7.0012,-6.9613,-6.9609,-6.9605,0,-6.8195,-6.8429,-6.8619,-6.8682,-6.8831,-6.8919,-6.8986,-6.9096,-6.9185,-6.931,-6.9368,-6.951,-6.9589,-6.9699,-6.9746,-6.9673,-6.9976,-6.9885,-7.0008,-7.0008,-7.0074,-7.007,-7.0399,-7.012,-7.012,-7.0119,-7.0118,0,-6.8452,-6.8616,-6.8695,-6.8812,-6.8996,-6.9036,-6.9217,-6.928,-6.9379,-6.9509,-6.9511,-6.9633,-6.9687,-6.9818,-6.9855,-7.0043,-7.0077,-7.0109,-7.0117,-7.011,-7.0106,-7.0163,-7.0149,-7.0128,-7.0126,-7.0124,-7.0123,0,-6.8667,-6.8726,-6.8934,-6.9058,-6.9093,-6.9223,-6.933,-6.9444,-6.9496,-6.9661,-6.9702,-6.9785,-6.994,-6.9997,-7.0184,-7.021,-7.0428,-7.0422,-7.0389,-7.0391,-7.0512,-7.0501,-7.0891,-7.0945,-7.0629,-7.0632,-7.0634,0,-6.8828,-6.8954,-6.9092,-6.918,-6.9249,-6.9389,-6.9481,-6.9525,-6.9621,-6.9764,-6.9861,-7.0015,-7.014,-7.0387,-7.0465,-7.0609,-7.0608,-7.0735,-7.063,-7.0619,-7.0613,-7.0606,-7.062,-7.0755,-7.0758,-7.0761,-7.0763,0,-6.9109,-6.9132,-6.9263,-6.9406,-6.9515,-6.9629,-6.974,-6.9811,-6.9873,-6.998,-7.0138,-7.0235,-7.0427,-7.0581,-7.0729,-7.0798,-7.0792,-7.0795,-7.0832,-7.0827,-7.0803,-7.082,-7.0444,-7.0786,-7.0784,-7.0782,-7.0781,-7.078,-6.9304,-6.9416,-6.9531,-6.9678,-6.9766,-6.987,-6.9984,-7.0051,-7.0184,-7.0344,-7.0362,-7.0532,-7.0647,-7.0846,-7.0921,-7.1056,-7.1022,-7.1074,-7.1088,-7.1101,-7.1111,-7.078,-7.1083,-7.1082,-7.1081,-7.1081,-7.1081,0,-6.9586,-6.966,-6.9794,-6.995,-7.0066,-7.0049,-7.0171,-7.027,-7.042,-7.0527,-7.0651,-7.0834,-7.0983,-7.1072,-7.1222,-7.1312,-7.1314,-7.135,-7.1345,-7.1362,-7.1131,-7.1086,-7.1347,-7.1347,-7.1347,-7.1347,-7.1347,-7.1347,-6.9747,-6.9937,-6.9974,-7.0209,-7.0281,-7.0449,-7.052,-7.0617,-7.0703,-7.0907,-7.1031,-7.1088,-7.1189,-7.1346,-7.1483,-7.1505,-7.1561,-7.1602,-7.1622,-7.1405,-7.1378,-7.1351,-7.1309,-7.1613,-7.1613,-7.1841,-7.1843,-7.1845]}]]